Home > Weather > Kleppestø > Past weeks

Flag for Norway Weather for the Past 2 Weeks in Kleppestø, Norway

Now
44 °F

Quite cool.


Feels Like: 43 °F
Forecast: 38 / 52 °F
Wind: 3 mph from Southeast

Location: Bergen / Florida

Current Time: Apr 29, 2016 at 10:43:19 PM

Latest Report: Apr 29, 2016 at 10:00 PM


Visibility: N/A

Pressure: 29.83 "Hg

Humidity: 63%

Dew Point: 32 °F

Location of KleppestøLocation

Historic Weather in Kleppestø — Graph

°F

Kleppestø Temperature Yesterday

Maximum temperature yesterday: 52 °F (at 6:00 PM)
Minimum temperature yesterday: 36 °F (at 2:00 AM)
Average temperature yesterday: 45 °F

High & Low Weather Summary for the Past Weeks

 TemperatureHumidityPressure
High53 °F (Apr 26, 4:00 PM)88% (Apr 23, 8:00 AM)30.37 "Hg (Apr 23, 8:00 AM)
Low32 °F (Apr 16, 5:00 AM)17% (Apr 26, 4:00 PM)29.41 "Hg (Apr 18, 5:00 PM)
Average43 °F61%29.81 "Hg
* Reported Apr 14 9:00 PM — Apr 29 9:00 PM, Kleppestø, Weather by CustomWeather, © 2016

Note: Actual official high and low records may vary slightly from our data, if they occured in-between our weather recording intervals... More about our weather records

Advertising

Kleppestø Weather History for the Previous 24 Hours

Scroll right to see more
 ConditionsComfort  
Time TempWeatherWind HumidityBarometerVisibility
9:00 PM
Fri, Apr 29
45 °FCool.1 mph55%29.81 "HgN/A
8:00 PM44 °FOvercast.5 mph63%29.80 "Hg22 mi
7:00 PM45 °FQuite cool.6 mph62%29.81 "HgN/A
6:00 PM48 °FCool.2 mph56%29.78 "HgN/A
5:00 PM53 °FPartly sunny.1 mph44%29.75 "Hg28 mi
4:00 PM50 °FCool.1 mph51%29.75 "HgN/A
3:00 PM48 °FCool.5 mph52%29.74 "HgN/A
2:00 PM48 °FPartly sunny.6 mph57%29.72 "Hg19 mi
1:00 PM46 °FCool.6 mph62%29.71 "HgN/A
12:00 PM45 °FCool.9 mph68%29.70 "HgN/A
11:00 AM45 °FOvercast.8 mph68%29.68 "Hg19 mi
10:00 AM44 °FQuite cool.7 mph76%29.67 "HgN/A
9:00 AM42 °FQuite cool.5 mph72%29.68 "HgN/A
8:00 AM40 °FOvercast.5 mph70%29.68 "Hg25 mi
7:00 AM37 °FChilly.3 mph71%29.69 "HgN/A
10:00 PM
Thu, Apr 28
42 °FQuite cool.2 mph65%29.86 "HgN/A
Weather by CustomWeather, © 2016

See weather overviewHow to use our weather pages